Content
SEND FEEDBACK

Daily
Averages
Monthly
Summary
United States of America

SHOALS, INDIANA


Home > North America > United States > Indiana
Elevation: 478 feet     Latitude: 38 40N     Longitude: 086 48W

WEATHER
 
SELECT A DAY
Number of Records: 199,931;   Date Range: 1/1/95 - 9/13/14
 
SHARE

PRINT THIS DATA

[ ← Previous Day ]
WEATHER ALMANAC - JANUARY 31, 2013
[ Next Day → ]
[ °C ]   °F
Weather ElementAverageHighLow
Temperature23 °F30 °F (3:53 pm)10 °F (11:53 pm)
Dewpoint13.6 °F21.9 °F (5:53 pm)-2 °F (11:53 pm)
Humidity67.9 %86 % (6:10 pm)54 % (3:53 pm)
Barometer29.95 in30.19 in (11:53 pm)29.73 in (1:07 am)
Wind Speed14.4 mph21.9 mph (1:07 am)
Wind Gust35.7 mph (11:53 pm)
Weather ElementAverage
Visibility5.7 mi
Wind DirectionWNW (283.8 °)

Weather ElementTotal
Precipitation0.02 in
Heating Degree Days45 (Base 65)
Averaged from 39 records on January 31, 2013
WEATHER CONDITIONS BREAKOUT
WIND DIRECTION BREAKOUT
WEATHER BY HOUR - JANUARY 31, 2013
[ °C ]   °F
Local TimeTemperatureDewpointHumidityBarometerVisibilityWind DirectionWind SpeedGust SpeedPrecipitationEventsConditions
1:07 AM26.6 °F15.8 °F64 %29.73 in10.0 miWNW (290°)21.9 mph32.2 mphOvercast
1:53 AM26.1 °F16.0 °F66 %29.77 in10.0 miWNW (290°)13.8 mph24.2 mph0.00 inOvercast
2:12 AM26.6 °F17.6 °F69 %29.75 in6.0 miWest (280°)11.5 mph23.0 mph0.00 inSnowLight Snow
2:53 AM26.1 °F16.0 °F66 %29.80 in9.0 miWest (270°)10.4 mph29.9 mph0.00 inOvercast
3:11 AM26.6 °F15.8 °F64 %29.79 in6.0 miWest (280°)17.3 mph28.8 mph0.00 inSnowLight Snow
3:53 AM25.0 °F15.1 °F66 %29.82 in7.0 miWest (260°)18.4 mph27.6 mph0.00 inSnowLight Snow
4:53 AM25.0 °F12.9 °F60 %29.83 in10.0 miWest (270°)15.0 mph31.1 mph0.00 inOvercast
5:53 AM24.1 °F10.0 °F55 %29.86 in10.0 miWNW (290°)18.4 mph31.1 mphOvercast
7:53 AM24.1 °F12.0 °F60 %29.90 in10.0 miWest (260°)11.5 mphOvercast
8:53 AM25.0 °F12.9 °F60 %29.92 in10.0 miWSW (240°)9.2 mph18.4 mphOvercast
9:53 AM26.1 °F15.1 °F63 %29.94 in10.0 miWSW (250°)11.5 mphOvercast
10:53 AM26.1 °F12.9 °F58 %29.96 in8.0 miWest (260°)15.0 mph24.2 mph0.00 inSnowLight Snow
11:53 AM27.0 °F15.1 °F61 %29.96 in8.0 miWest (270°)16.1 mph26.5 mph0.00 inOvercast
12:53 PM28.9 °F18.0 °F64 %29.96 in8.0 miWest (260°)15.0 mph27.6 mph0.00 inSnowLight Snow
1:53 PM28.0 °F16.0 °F61 %29.95 in8.0 miWSW (240°)17.3 mph28.8 mph0.00 inSnowLight Snow
2:53 PM28.9 °F17.1 °F61 %29.94 in10.0 miWest (260°)18.4 mph25.3 mph0.00 inOvercast
3:53 PM30.0 °F15.1 °F54 %29.93 in10.0 miWest (260°)13.8 mph21.9 mph0.00 inOvercast
4:53 PM28.9 °F16.0 °F58 %29.93 in10.0 miWSW (250°)12.7 mph26.5 mphOvercast
5:36 PM28.4 °F19.4 °F69 %29.92 in2.5 miWest (260°)20.7 mph26.5 mph0.00 inSnowLight Snow
5:42 PM26.6 °F19.4 °F74 %29.92 in0.8 miWest (280°)11.5 mph26.5 mph0.00 inSnowLight Snow
5:53 PM26.1 °F21.9 °F84 %29.95 in0.5 miWNW (290°)11.5 mph0.00 inFog-SnowLight Snow
6:10 PM24.8 °F21.2 °F86 %29.93 in0.5 miWNW (290°)17.3 mph24.2 mph0.00 inFog-SnowSnow
6:31 PM24.8 °F21.2 °F86 %29.93 in1.0 miWest (280°)10.4 mph0.00 inSnowLight Snow
6:37 PM24.8 °F21.2 °F86 %29.94 in0.5 miWNW (300°)11.5 mph18.4 mph0.00 inFog-SnowSnow
6:49 PM24.8 °F19.4 °F80 %29.94 in0.2 miNW (310°)9.2 mph17.3 mph0.01 inFog-SnowSnow
6:53 PM24.1 °F19.9 °F84 %29.97 in0.5 miNW (320°)9.2 mph0.01 inFog-SnowSnow
7:12 PM23.0 °F17.6 °F80 %29.95 in1.8 miWNW (300°)13.8 mph26.5 mph0.00 inSnowLight Snow
7:19 PM23.0 °F17.6 °F80 %29.96 in2.0 miWNW (300°)16.1 mph25.3 mph0.00 inSnowLight Snow
7:38 PM21.2 °F15.8 °F80 %29.98 in1.5 miNW (310°)12.7 mph25.3 mph0.00 inSnowLight Snow
7:53 PM19.9 °F14.0 °F78 %30.02 in1.2 miNW (320°)10.4 mph25.3 mph0.00 inSnowLight Snow
8:36 PM17.6 °F8.6 °F68 %30.02 in3.0 miNW (310°)11.5 mph26.5 mph0.00 inSnowLight Snow
8:48 PM17.6 °F6.8 °F63 %30.03 in4.0 miWNW (300°)17.3 mph29.9 mph0.00 inOvercast
8:53 PM17.1 °F6.1 °F62 %30.06 in4.0 miNW (310°)16.1 mph32.2 mph0.00 inSnowLight Snow
9:08 PM15.8 °F6.8 °F68 %30.03 in6.0 miNW (310°)10.4 mph25.3 mph0.00 inSnowLight Snow
9:53 PM12.9 °F3.0 °F65 %30.10 in7.0 miWNW (300°)17.3 mph27.6 mph0.00 inMostly Cloudy
10:00 PM12.2 °F1.4 °F62 %30.07 in7.0 miWNW (290°)15.0 mph27.6 mphScattered Clouds
10:25 PM12.2 °F1.4 °F62 %30.08 in8.0 miWNW (300°)16.1 mph24.2 mphMostly Cloudy
10:53 PM10.9 °F1.0 °F64 %30.15 in6.0 miNW (310°)16.1 mph27.6 mph0.00 inHaze
11:53 PM10.0 °F-2.0 °F58 %30.19 in4.0 miWNW (300°)18.4 mph35.7 mph0.00 inPartly Cloudy
Hourly data recorded from KBFR, located miles away from Shoals, Indiana







STORIES FROM OUR PARTNERS